Time,TemperatureF,DewpointF,PressureIn,WindDirection,WindDirectionDegrees,WindSpeedMPH,WindSpeedGustMPH,Humidity,HourlyPrecipIn,Conditions,Clouds,dailyrainin,SoftwareType,DateUTC
2013-02-10 00:00:00,59.5,56.7,29.10,East,93,8.0,10.0,90,0.00,,,0.00,meteohub,2013-02-10 06:00:00,
2013-02-10 00:05:00,59.5,56.8,29.10,SW,223,5.0,8.0,91,0.00,,,0.00,meteohub,2013-02-10 06:05:00,
2013-02-10 00:10:00,59.7,57.0,29.10,SW,223,5.0,8.0,91,0.00,,,0.00,meteohub,2013-02-10 06:10:00,
2013-02-10 00:15:00,59.7,57.0,29.10,SW,225,6.0,8.0,91,0.00,,,0.00,meteohub,2013-02-10 06:15:00,
2013-02-10 00:20:00,59.9,57.2,29.10,South,182,4.0,8.0,91,0.00,,,0.00,meteohub,2013-02-10 06:20:00,
2013-02-10 00:25:00,60.1,57.4,29.10,South,186,0.0,8.0,91,0.00,,,0.00,meteohub,2013-02-10 06:25:00,
2013-02-10 00:30:00,60.1,57.4,29.10,SSW,213,6.0,9.0,91,0.00,,,0.00,meteohub,2013-02-10 06:30:00,
2013-02-10 00:35:00,60.3,57.6,29.10,South,176,3.0,9.0,91,0.00,,,0.00,meteohub,2013-02-10 06:35:00,
2013-02-10 00:40:00,60.4,57.7,29.10,SSW,209,3.0,9.0,91,0.00,,,0.00,meteohub,2013-02-10 06:40:00,
2013-02-10 00:45:00,60.4,58.1,29.07,West,272,4.0,6.0,92,0.00,,,0.00,meteohub,2013-02-10 06:45:00,
2013-02-10 00:50:00,60.6,58.3,29.07,South,190,4.0,6.0,92,0.00,,,0.00,meteohub,2013-02-10 06:50:00,
2013-02-10 00:55:00,60.6,58.3,29.07,WSW,244,4.0,6.0,92,0.00,,,0.00,meteohub,2013-02-10 06:55:00,
2013-02-10 01:00:00,60.8,58.5,29.04,WSW,257,5.0,6.0,92,0.00,,,0.00,meteohub,2013-02-10 07:00:00,
2013-02-10 01:05:00,61.0,58.6,29.04,SSW,213,8.0,8.0,92,0.00,,,0.00,meteohub,2013-02-10 07:05:00,
2013-02-10 01:10:00,61.2,58.8,29.04,South,189,4.0,9.0,92,0.00,,,0.00,meteohub,2013-02-10 07:10:00,
2013-02-10 01:15:00,61.3,59.0,29.04,SSW,202,6.0,9.0,92,0.00,,,0.00,meteohub,2013-02-10 07:15:00,
2013-02-10 01:21:00,61.5,59.2,29.04,SSW,206,4.0,9.0,92,0.00,,,0.00,meteohub,2013-02-10 07:21:00,
2013-02-10 01:26:00,61.9,59.5,29.04,SSW,211,3.0,9.0,92,0.00,,,0.00,meteohub,2013-02-10 07:26:00,
2013-02-10 01:31:00,62.1,59.7,29.04,WSW,251,2.0,8.0,92,0.00,,,0.00,meteohub,2013-02-10 07:31:00,
2013-02-10 01:36:00,62.2,59.9,29.04,WSW,240,4.0,8.0,92,0.00,,,0.00,meteohub,2013-02-10 07:36:00,
2013-02-10 01:41:00,62.6,60.3,29.04,West,264,4.0,8.0,92,0.00,,,0.00,meteohub,2013-02-10 07:41:00,
2013-02-10 01:46:00,62.8,60.4,29.01,SW,234,6.0,8.0,92,0.00,,,0.00,meteohub,2013-02-10 07:46:00,
2013-02-10 01:51:00,63.1,60.8,29.01,West,261,6.0,8.0,92,0.00,,,0.00,meteohub,2013-02-10 07:51:00,
2013-02-10 01:56:00,63.3,61.0,29.01,West,260,5.0,11.0,92,0.00,,,0.00,meteohub,2013-02-10 07:56:00,
2013-02-10 02:01:00,63.5,61.2,29.04,SW,227,4.0,11.0,92,0.00,,,0.00,meteohub,2013-02-10 08:01:00,
2013-02-10 02:06:00,63.7,61.3,29.04,West,276,4.0,11.0,92,0.00,,,0.00,meteohub,2013-02-10 08:06:00,
2013-02-10 02:11:00,63.9,61.5,29.04,SSW,198,4.0,7.0,92,0.00,,,0.00,meteohub,2013-02-10 08:11:00,
2013-02-10 02:16:00,64.2,61.9,29.01,SSW,193,3.0,8.0,92,0.00,,,0.00,meteohub,2013-02-10 08:16:00,
2013-02-10 02:21:00,64.8,62.4,29.01,SW,220,4.0,8.0,92,0.00,,,0.00,meteohub,2013-02-10 08:21:00,
2013-02-10 02:26:00,65.1,62.8,29.01,WSW,248,3.0,8.0,92,0.00,,,0.00,meteohub,2013-02-10 08:26:00,
2013-02-10 02:31:00,65.5,63.1,29.04,SW,229,9.0,9.0,92,0.00,,,0.00,meteohub,2013-02-10 08:31:00,
2013-02-10 02:36:00,65.8,63.7,29.04,WSW,256,3.0,9.0,93,0.00,,,0.00,meteohub,2013-02-10 08:36:00,
2013-02-10 05:45:00,52.2,46.2,-100.00,NW,311,0.0,-999.0,80,-99.99,,,-99.99,meteohub,2013-02-10 11:45:00,
2013-02-10 05:50:00,52.2,46.2,29.16,NW,311,0.0,-999.0,80,-99.99,,,0.87,meteohub,2013-02-10 11:50:00,
2013-02-10 05:55:00,52.3,46.0,29.16,NW,311,0.0,0.0,79,0.00,,,0.87,meteohub,2013-02-10 11:55:00,
2013-02-10 06:00:00,52.3,45.7,29.16,NW,311,0.0,0.0,78,0.00,,,0.87,meteohub,2013-02-10 12:00:00,
2013-02-10 06:05:00,52.3,45.0,29.16,NW,311,0.0,0.0,76,0.00,,,0.87,meteohub,2013-02-10 12:05:00,
2013-02-10 06:11:00,52.3,44.6,29.16,NW,311,0.0,0.0,75,0.00,,,0.87,meteohub,2013-02-10 12:11:00,
2013-02-10 06:16:00,52.3,44.2,29.16,NW,311,0.0,0.0,74,0.00,,,0.87,meteohub,2013-02-10 12:16:00,
2013-02-10 06:21:00,52.0,43.2,29.16,NW,311,0.0,0.0,72,0.00,,,0.87,meteohub,2013-02-10 12:21:00,
2013-02-10 06:26:00,51.8,42.6,29.16,NW,311,0.0,0.0,71,0.00,,,0.87,meteohub,2013-02-10 12:26:00,
2013-02-10 06:31:00,51.6,42.4,29.16,NW,311,0.0,0.0,71,0.00,,,0.87,meteohub,2013-02-10 12:31:00,
2013-02-10 06:36:00,51.4,41.9,29.16,NW,311,0.0,0.0,70,0.00,,,0.87,meteohub,2013-02-10 12:36:00,
2013-02-10 06:41:00,51.3,41.4,29.16,NW,311,0.0,0.0,69,0.00,,,0.87,meteohub,2013-02-10 12:41:00,
2013-02-10 06:46:00,51.1,40.8,29.16,NW,311,0.0,0.0,68,0.00,,,0.87,meteohub,2013-02-10 12:46:00,
2013-02-10 06:51:00,51.3,40.6,29.16,NW,311,0.0,0.0,67,0.00,,,0.87,meteohub,2013-02-10 12:51:00,
2013-02-10 06:56:00,51.4,40.1,29.16,NW,311,0.0,0.0,65,0.00,,,0.87,meteohub,2013-02-10 12:56:00,
2013-02-10 07:01:00,51.6,39.0,29.16,NW,311,0.0,0.0,62,0.00,,,0.87,meteohub,2013-02-10 13:01:00,
2013-02-10 07:06:00,51.8,37.9,29.16,NW,311,0.0,0.0,59,0.00,,,0.87,meteohub,2013-02-10 13:06:00,
2013-02-10 07:11:00,51.8,36.7,29.16,NW,311,0.0,0.0,56,0.00,,,0.87,meteohub,2013-02-10 13:11:00,
2013-02-10 07:16:00,51.8,35.2,29.19,NW,311,0.0,0.0,53,0.00,,,0.87,meteohub,2013-02-10 13:16:00,
2013-02-10 07:21:00,51.6,34.5,29.19,NW,311,0.0,0.0,52,0.00,,,0.87,meteohub,2013-02-10 13:21:00,
2013-02-10 07:26:00,51.8,32.7,29.19,NW,311,0.0,0.0,48,0.00,,,0.87,meteohub,2013-02-10 13:26:00,
2013-02-10 07:31:00,52.2,30.9,29.19,West,271,0.0,0.0,44,0.00,,,0.87,meteohub,2013-02-10 13:31:00,
2013-02-10 07:36:00,52.3,29.3,29.19,West,271,0.0,0.0,41,0.00,,,0.87,meteohub,2013-02-10 13:36:00,
2013-02-10 07:42:00,52.3,28.8,29.19,SSW,198,0.0,0.0,40,0.00,,,0.87,meteohub,2013-02-10 13:42:00,
2013-02-10 07:47:00,52.3,28.0,29.19,WNW,295,0.0,0.0,39,0.00,,,0.87,meteohub,2013-02-10 13:47:00,
2013-02-10 07:52:00,52.3,27.5,29.19,WNW,295,0.0,2.0,38,0.00,,,0.87,meteohub,2013-02-10 13:52:00,
2013-02-10 07:57:00,52.2,27.3,29.19,WNW,295,0.0,2.0,38,0.00,,,0.87,meteohub,2013-02-10 13:57:00,
2013-02-10 08:02:00,52.0,27.1,29.19,WNW,295,0.0,2.0,38,0.00,,,0.87,meteohub,2013-02-10 14:02:00,
2013-02-10 08:07:00,51.8,27.0,29.19,WNW,295,0.0,0.0,38,0.00,,,0.87,meteohub,2013-02-10 14:07:00,
2013-02-10 08:12:00,51.8,27.0,29.19,WNW,295,0.0,0.0,38,0.00,,,0.87,meteohub,2013-02-10 14:12:00,
2013-02-10 08:17:00,52.2,26.6,29.19,West,260,0.0,3.0,37,0.00,,,0.87,meteohub,2013-02-10 14:17:00,
2013-02-10 08:22:00,52.7,27.1,29.19,West,260,0.0,3.0,37,0.00,,,0.87,meteohub,2013-02-10 14:22:00,
2013-02-10 08:27:00,53.2,27.0,29.22,West,260,0.0,3.0,36,0.00,,,0.87,meteohub,2013-02-10 14:27:00,
2013-02-10 08:32:00,53.8,26.1,29.22,WSW,247,0.0,0.0,34,0.00,,,0.87,meteohub,2013-02-10 14:32:00,
2013-02-10 08:37:00,54.3,27.3,29.22,WSW,247,0.0,0.0,35,0.00,,,0.87,meteohub,2013-02-10 14:37:00,
2013-02-10 08:42:00,54.9,26.2,29.22,West,270,0.0,0.0,33,0.00,,,0.87,meteohub,2013-02-10 14:42:00,
2013-02-10 08:47:00,55.4,25.3,29.22,West,263,0.0,2.0,31,0.00,,,0.87,meteohub,2013-02-10 14:47:00,
2013-02-10 08:53:00,55.6,25.3,29.22,WNW,284,0.0,3.0,31,0.00,,,0.87,meteohub,2013-02-10 14:53:00,
2013-02-10 08:58:00,55.8,24.8,29.22,WNW,284,0.0,3.0,30,0.00,,,0.87,meteohub,2013-02-10 14:58:00,
2013-02-10 09:03:00,55.8,24.8,29.22,WNW,301,0.0,3.0,30,0.00,,,0.87,meteohub,2013-02-10 15:03:00,
2013-02-10 09:08:00,55.8,23.9,29.22,West,264,0.0,3.0,29,0.00,,,0.87,meteohub,2013-02-10 15:08:00,
2013-02-10 09:13:00,55.9,23.4,29.22,WNW,303,0.0,3.0,28,0.00,,,0.87,meteohub,2013-02-10 15:13:00,
2013-02-10 09:18:00,56.3,22.8,29.22,WNW,296,0.0,3.0,27,0.00,,,0.87,meteohub,2013-02-10 15:18:00,
2013-02-10 09:23:00,56.7,23.0,29.22,WSW,252,0.0,3.0,27,0.00,,,0.87,meteohub,2013-02-10 15:23:00,
2013-02-10 09:28:00,56.8,23.2,29.22,WSW,250,0.0,3.0,27,0.00,,,0.87,meteohub,2013-02-10 15:28:00,
2013-02-10 09:33:00,57.0,23.4,29.22,NNW,329,3.0,3.0,27,0.00,,,0.87,meteohub,2013-02-10 15:33:00,
2013-02-10 09:39:00,57.2,22.6,29.22,SW,218,3.0,4.0,26,0.00,,,0.87,meteohub,2013-02-10 15:39:00,
2013-02-10 09:44:00,57.2,22.6,29.25,WSW,238,2.0,4.0,26,0.00,,,0.87,meteohub,2013-02-10 15:44:00,
2013-02-10 09:49:00,57.2,22.6,29.25,West,277,3.0,4.0,26,0.00,,,0.87,meteohub,2013-02-10 15:49:00,
2013-02-10 09:54:00,57.2,21.7,29.25,West,275,0.0,3.0,25,0.00,,,0.87,meteohub,2013-02-10 15:54:00,
2013-02-10 09:59:00,57.2,21.7,29.25,WNW,286,0.0,5.0,25,0.00,,,0.87,meteohub,2013-02-10 15:59:00,
2013-02-10 10:04:00,57.4,21.9,29.25,West,266,0.0,5.0,25,0.00,,,0.87,meteohub,2013-02-10 16:04:00,
2013-02-10 10:09:00,57.6,21.9,29.25,West,277,2.0,6.0,25,0.00,,,0.87,meteohub,2013-02-10 16:09:00,
2013-02-10 10:14:00,57.9,22.3,29.25,SW,214,0.0,6.0,25,0.00,,,0.87,meteohub,2013-02-10 16:14:00,
2013-02-10 10:19:00,57.7,22.1,29.25,NW,313,0.0,4.0,25,0.00,,,0.87,meteohub,2013-02-10 16:19:00,
2013-02-10 10:24:00,57.7,22.1,29.25,WSW,251,0.0,4.0,25,0.00,,,0.87,meteohub,2013-02-10 16:24:00,
2013-02-10 10:30:00,57.9,22.3,29.25,West,265,0.0,4.0,25,0.00,,,0.87,meteohub,2013-02-10 16:30:00,
2013-02-10 10:35:00,57.9,22.3,29.25,West,272,3.0,3.0,25,0.00,,,0.87,meteohub,2013-02-10 16:35:00,
2013-02-10 10:40:00,57.9,22.3,29.25,West,259,0.0,3.0,25,0.00,,,0.87,meteohub,2013-02-10 16:40:00,
2013-02-10 10:45:00,58.1,22.5,29.25,West,259,3.0,3.0,25,0.00,,,0.87,meteohub,2013-02-10 16:45:00,
2013-02-10 10:50:00,58.8,23.0,29.25,WNW,288,0.0,4.0,25,0.00,,,0.87,meteohub,2013-02-10 16:50:00,
2013-02-10 10:55:00,59.5,22.6,29.25,SW,231,3.0,4.0,24,0.00,,,0.87,meteohub,2013-02-10 16:55:00,
2013-02-10 11:00:00,60.4,23.5,29.25,WNW,283,0.0,3.0,24,0.00,,,0.87,meteohub,2013-02-10 17:00:00,
2013-02-10 11:05:00,61.3,24.3,29.25,WNW,299,2.0,5.0,24,0.00,,,0.87,meteohub,2013-02-10 17:05:00,
2013-02-10 11:10:00,61.9,24.6,29.25,West,279,0.0,6.0,24,0.00,,,0.87,meteohub,2013-02-10 17:10:00,
2013-02-10 11:15:00,62.4,25.2,29.25,NW,307,0.0,6.0,24,0.00,,,0.87,meteohub,2013-02-10 17:15:00,
2013-02-10 11:20:00,62.6,24.3,29.25,West,274,0.0,6.0,23,0.00,,,0.87,meteohub,2013-02-10 17:20:00,
2013-02-10 11:26:00,63.0,22.5,29.25,NW,315,3.0,5.0,21,0.00,,,0.87,meteohub,2013-02-10 17:26:00,
2013-02-10 11:31:00,63.1,22.6,29.25,SW,229,3.0,5.0,21,0.00,,,0.87,meteohub,2013-02-10 17:31:00,
2013-02-10 11:36:00,63.5,22.8,29.25,WNW,299,0.0,5.0,21,0.00,,,0.87,meteohub,2013-02-10 17:36:00,
2013-02-10 11:41:00,63.5,22.8,29.25,NW,324,0.0,4.0,21,0.00,,,0.87,meteohub,2013-02-10 17:41:00,
2013-02-10 11:46:00,63.5,22.8,29.25,NW,318,0.0,6.0,21,0.00,,,0.87,meteohub,2013-02-10 17:46:00,
2013-02-10 11:51:00,63.5,22.8,29.25,WNW,285,3.0,6.0,21,0.00,,,0.87,meteohub,2013-02-10 17:51:00,
2013-02-10 11:56:00,63.5,22.8,29.25,NW,313,0.0,4.0,21,0.00,,,0.87,meteohub,2013-02-10 17:56:00,
2013-02-10 12:01:00,63.5,22.8,29.25,WSW,253,2.0,4.0,21,0.00,,,0.87,meteohub,2013-02-10 18:01:00,
2013-02-10 12:06:00,63.9,23.2,29.25,WNW,294,3.0,3.0,21,0.00,,,0.87,meteohub,2013-02-10 18:06:00,
2013-02-10 12:11:00,63.7,19.4,29.25,West,270,2.0,4.0,18,0.00,,,0.87,meteohub,2013-02-10 18:11:00,
2013-02-10 12:17:00,63.5,19.2,29.25,WSW,242,3.0,4.0,18,0.00,,,0.87,meteohub,2013-02-10 18:17:00,
2013-02-10 12:22:00,63.5,19.2,29.25,West,277,0.0,5.0,18,0.00,,,0.87,meteohub,2013-02-10 18:22:00,
2013-02-10 12:27:00,63.5,19.2,29.25,WSW,258,4.0,5.0,18,0.00,,,0.87,meteohub,2013-02-10 18:27:00,
2013-02-10 12:32:00,63.5,19.2,29.22,West,281,3.0,5.0,18,0.00,,,0.87,meteohub,2013-02-10 18:32:00,
2013-02-10 12:37:00,64.0,19.6,29.22,WNW,290,0.0,4.0,18,0.00,,,0.87,meteohub,2013-02-10 18:37:00,
2013-02-10 12:42:00,64.4,19.9,29.22,WSW,257,3.0,4.0,18,0.00,,,0.87,meteohub,2013-02-10 18:42:00,
2013-02-10 12:47:00,64.8,20.3,29.22,NNW,341,0.0,5.0,18,0.00,,,0.87,meteohub,2013-02-10 18:47:00,
2013-02-10 12:52:00,64.8,20.3,29.22,NW,326,0.0,5.0,18,0.00,,,0.87,meteohub,2013-02-10 18:52:00,
2013-02-10 12:57:00,64.8,20.3,29.22,WNW,301,0.0,5.0,18,0.00,,,0.87,meteohub,2013-02-10 18:57:00,
2013-02-10 13:02:00,64.9,20.5,29.22,West,276,2.0,5.0,18,0.00,,,0.87,meteohub,2013-02-10 19:02:00,
2013-02-10 13:07:00,64.9,20.5,29.22,North,357,2.0,5.0,18,0.00,,,0.87,meteohub,2013-02-10 19:07:00,
2013-02-10 13:12:00,64.9,20.5,29.22,NW,313,3.0,4.0,18,0.00,,,0.87,meteohub,2013-02-10 19:12:00,
2013-02-10 13:17:00,65.1,20.5,29.22,NW,304,0.0,4.0,18,0.00,,,0.87,meteohub,2013-02-10 19:17:00,
2013-02-10 13:22:00,65.7,21.0,29.22,SW,221,0.0,4.0,18,0.00,,,0.87,meteohub,2013-02-10 19:22:00,
2013-02-10 13:27:00,66.2,20.1,29.22,West,275,3.0,4.0,17,0.00,,,0.87,meteohub,2013-02-10 19:27:00,
2013-02-10 13:32:00,66.6,20.3,29.22,WSW,248,3.0,4.0,17,0.00,,,0.87,meteohub,2013-02-10 19:32:00,
2013-02-10 13:37:00,66.4,20.3,29.22,NNW,343,0.0,4.0,17,0.00,,,0.87,meteohub,2013-02-10 19:37:00,
2013-02-10 13:42:00,66.2,17.2,29.22,NW,311,0.0,4.0,15,0.00,,,0.87,meteohub,2013-02-10 19:42:00,
2013-02-10 13:47:00,66.0,21.2,29.22,WNW,283,2.0,4.0,18,0.00,,,0.87,meteohub,2013-02-10 19:47:00,
2013-02-10 13:52:00,66.0,17.1,29.22,WSW,257,0.0,4.0,15,0.00,,,0.87,meteohub,2013-02-10 19:52:00,
2013-02-10 13:57:00,66.2,20.1,29.19,SW,226,0.0,4.0,17,0.00,,,0.87,meteohub,2013-02-10 19:57:00,
2013-02-10 14:02:00,66.6,17.4,29.19,NNW,330,2.0,4.0,15,0.00,,,0.87,meteohub,2013-02-10 20:02:00,
2013-02-10 14:07:00,66.7,20.5,29.19,WNW,288,3.0,4.0,17,0.00,,,0.87,meteohub,2013-02-10 20:07:00,
2013-02-10 14:12:00,66.9,17.8,29.19,WSW,240,0.0,3.0,15,0.00,,,0.87,meteohub,2013-02-10 20:12:00,
2013-02-10 14:17:00,67.1,18.0,29.19,WSW,243,4.0,4.0,15,0.00,,,0.87,meteohub,2013-02-10 20:17:00,
2013-02-10 14:22:00,66.9,17.8,29.19,West,260,3.0,4.0,15,0.00,,,0.87,meteohub,2013-02-10 20:22:00,
2013-02-10 14:28:00,66.9,20.7,29.22,NW,323,0.0,4.0,17,0.00,,,0.87,meteohub,2013-02-10 20:28:00,
2013-02-10 14:33:00,67.1,20.8,29.22,WNW,300,0.0,4.0,17,0.00,,,0.87,meteohub,2013-02-10 20:33:00,
2013-02-10 14:38:00,67.6,18.3,29.22,West,277,2.0,4.0,15,0.00,,,0.87,meteohub,2013-02-10 20:38:00,
2013-02-10 14:43:00,67.5,18.1,29.19,WNW,295,0.0,5.0,15,0.00,,,0.87,meteohub,2013-02-10 20:43:00,
2013-02-10 14:48:00,67.1,20.8,29.19,West,260,3.0,5.0,17,0.00,,,0.87,meteohub,2013-02-10 20:48:00,
2013-02-10 14:53:00,66.9,17.8,29.19,WSW,251,3.0,5.0,15,0.00,,,0.87,meteohub,2013-02-10 20:53:00,
2013-02-10 14:58:00,66.6,17.4,29.19,West,259,0.0,6.0,15,0.00,,,0.87,meteohub,2013-02-10 20:58:00,
2013-02-10 15:03:00,66.4,17.2,29.19,WSW,253,0.0,6.0,15,0.00,,,0.87,meteohub,2013-02-10 21:03:00,
2013-02-10 15:08:00,66.4,17.2,29.19,West,263,3.0,6.0,15,0.00,,,0.87,meteohub,2013-02-10 21:08:00,
2013-02-10 15:13:00,66.4,17.2,29.19,West,263,0.0,4.0,15,0.00,,,0.87,meteohub,2013-02-10 21:13:00,
2013-02-10 15:18:00,66.6,17.4,29.19,WSW,251,3.0,6.0,15,0.00,,,0.87,meteohub,2013-02-10 21:18:00,
2013-02-10 15:24:00,66.7,17.6,29.19,West,266,3.0,6.0,15,0.00,,,0.87,meteohub,2013-02-10 21:24:00,
2013-02-10 15:29:00,66.9,17.8,29.22,WNW,296,0.0,5.0,15,0.00,,,0.87,meteohub,2013-02-10 21:29:00,
2013-02-10 15:34:00,66.9,17.8,29.22,North,357,0.0,6.0,15,0.00,,,0.87,meteohub,2013-02-10 21:34:00,
2013-02-10 15:39:00,67.1,18.0,29.22,NNE,15,0.0,6.0,15,0.00,,,0.87,meteohub,2013-02-10 21:39:00,
2013-02-10 15:44:00,67.1,18.0,29.22,NW,305,0.0,6.0,15,0.00,,,0.87,meteohub,2013-02-10 21:44:00,
2013-02-10 15:49:00,67.3,18.0,29.22,WSW,246,0.0,4.0,15,0.00,,,0.87,meteohub,2013-02-10 21:49:00,
2013-02-10 15:54:00,67.3,18.0,29.22,WSW,242,0.0,4.0,15,0.00,,,0.87,meteohub,2013-02-10 21:54:00,
2013-02-10 15:59:00,67.5,18.1,29.22,West,263,0.0,3.0,15,0.00,,,0.87,meteohub,2013-02-10 21:59:00,
2013-02-10 16:04:00,67.5,18.1,29.22,WSW,250,4.0,4.0,15,0.00,,,0.87,meteohub,2013-02-10 22:04:00,
2013-02-10 16:09:00,67.5,18.1,29.22,NNE,20,0.0,4.0,15,0.00,,,0.87,meteohub,2013-02-10 22:09:00,
2013-02-10 16:15:00,67.5,18.1,29.22,West,260,3.0,6.0,15,0.00,,,0.87,meteohub,2013-02-10 22:15:00,
2013-02-10 16:20:00,67.6,18.3,29.22,WSW,252,3.0,5.0,15,0.00,,,0.87,meteohub,2013-02-10 22:20:00,
2013-02-10 16:25:00,67.6,18.3,29.22,West,272,0.0,5.0,15,0.00,,,0.87,meteohub,2013-02-10 22:25:00,
2013-02-10 16:30:00,67.3,18.0,29.22,West,272,0.0,5.0,15,0.00,,,0.87,meteohub,2013-02-10 22:30:00,
2013-02-10 16:35:00,67.1,18.0,29.22,West,264,0.0,4.0,15,0.00,,,0.87,meteohub,2013-02-10 22:35:00,
2013-02-10 16:40:00,67.1,18.0,29.22,NNW,334,0.0,4.0,15,0.00,,,0.87,meteohub,2013-02-10 22:40:00,
2013-02-10 16:45:00,66.9,17.8,29.22,NNW,334,0.0,4.0,15,0.00,,,0.87,meteohub,2013-02-10 22:45:00,
2013-02-10 16:50:00,66.7,17.6,29.22,West,262,2.0,3.0,15,0.00,,,0.87,meteohub,2013-02-10 22:50:00,
2013-02-10 16:55:00,66.7,17.6,29.22,NW,304,0.0,3.0,15,0.00,,,0.87,meteohub,2013-02-10 22:55:00,
2013-02-10 17:00:00,66.7,17.6,29.22,WSW,255,0.0,4.0,15,0.00,,,0.87,meteohub,2013-02-10 23:00:00,
2013-02-10 17:05:00,66.7,17.6,29.22,WSW,254,0.0,4.0,15,0.00,,,0.87,meteohub,2013-02-10 23:05:00,
2013-02-10 17:10:00,66.7,17.6,29.22,WSW,254,0.0,4.0,15,0.00,,,0.87,meteohub,2013-02-10 23:10:00,
2013-02-10 17:16:00,66.6,17.4,29.22,NNW,331,0.0,3.0,15,0.00,,,0.87,meteohub,2013-02-10 23:16:00,
2013-02-10 17:21:00,66.2,17.2,29.22,West,281,0.0,3.0,15,0.00,,,0.87,meteohub,2013-02-10 23:21:00,
2013-02-10 17:26:00,66.0,17.1,29.22,West,274,0.0,3.0,15,0.00,,,0.87,meteohub,2013-02-10 23:26:00,
2013-02-10 17:31:00,65.8,16.9,29.25,West,274,0.0,0.0,15,0.00,,,0.87,meteohub,2013-02-10 23:31:00,
2013-02-10 17:36:00,65.5,16.5,29.25,West,274,0.0,0.0,15,0.00,,,0.87,meteohub,2013-02-10 23:36:00,
2013-02-10 17:41:00,65.1,16.3,29.25,West,274,0.0,0.0,15,0.00,,,0.87,meteohub,2013-02-10 23:41:00,
2013-02-10 17:46:00,64.8,16.0,29.22,West,274,0.0,0.0,15,0.00,,,0.87,meteohub,2013-02-10 23:46:00,
2013-02-10 17:51:00,64.4,15.8,29.22,West,274,0.0,0.0,15,0.00,,,0.87,meteohub,2013-02-10 23:51:00,
2013-02-10 17:56:00,64.0,16.9,29.22,West,274,0.0,0.0,16,0.00,,,0.87,meteohub,2013-02-10 23:56:00,
2013-02-10 18:01:00,63.5,16.5,29.25,West,274,0.0,0.0,16,0.00,,,0.87,meteohub,2013-02-11 00:01:00,
2013-02-10 18:07:00,63.0,16.0,29.25,West,274,0.0,0.0,16,0.00,,,0.00,meteohub,2013-02-11 00:07:00,
2013-02-10 18:12:00,62.4,15.6,29.25,West,274,0.0,0.0,16,0.00,,,0.00,meteohub,2013-02-11 00:12:00,
2013-02-10 18:17:00,61.9,15.3,29.25,West,274,0.0,0.0,16,0.00,,,0.00,meteohub,2013-02-11 00:17:00,
2013-02-10 18:22:00,61.5,14.9,29.25,West,274,0.0,0.0,16,0.00,,,0.00,meteohub,2013-02-11 00:22:00,
2013-02-10 18:27:00,60.8,14.4,29.25,West,274,0.0,0.0,16,0.00,,,0.00,meteohub,2013-02-11 00:27:00,
2013-02-10 18:32:00,60.3,15.3,29.25,West,274,0.0,0.0,17,0.00,,,0.00,meteohub,2013-02-11 00:32:00,
2013-02-10 18:37:00,59.7,14.9,29.25,West,274,0.0,0.0,17,0.00,,,0.00,meteohub,2013-02-11 00:37:00,
2013-02-10 18:42:00,59.0,16.7,29.25,West,274,0.0,0.0,19,0.00,,,0.00,meteohub,2013-02-11 00:42:00,
2013-02-10 18:47:00,58.5,16.3,29.28,West,274,0.0,0.0,19,0.00,,,0.00,meteohub,2013-02-11 00:47:00,
2013-02-10 18:52:00,57.7,15.8,29.28,West,274,0.0,0.0,19,0.00,,,0.00,meteohub,2013-02-11 00:52:00,
2013-02-10 18:57:00,57.2,15.3,29.28,West,274,0.0,0.0,19,0.00,,,0.00,meteohub,2013-02-11 00:57:00,
2013-02-10 19:02:00,56.7,16.0,29.28,West,274,0.0,0.0,20,0.00,,,0.00,meteohub,2013-02-11 01:02:00,
2013-02-10 19:07:00,56.1,15.6,29.28,West,274,0.0,0.0,20,0.00,,,0.00,meteohub,2013-02-11 01:07:00,
2013-02-10 19:12:00,55.6,15.1,29.28,West,274,0.0,0.0,20,0.00,,,0.00,meteohub,2013-02-11 01:12:00,
2013-02-10 19:17:00,54.9,17.8,29.28,West,274,0.0,0.0,23,0.00,,,0.00,meteohub,2013-02-11 01:17:00,
2013-02-10 19:22:00,54.5,17.4,29.28,West,274,0.0,0.0,23,0.00,,,0.00,meteohub,2013-02-11 01:22:00,
2013-02-10 19:27:00,54.0,17.1,29.28,West,274,0.0,0.0,23,0.00,,,0.00,meteohub,2013-02-11 01:27:00,
2013-02-10 19:32:00,53.4,19.4,29.31,West,274,0.0,0.0,26,0.00,,,0.00,meteohub,2013-02-11 01:32:00,
2013-02-10 19:37:00,53.1,19.0,29.31,West,274,0.0,0.0,26,0.00,,,0.00,meteohub,2013-02-11 01:37:00,
2013-02-10 19:42:00,52.5,18.7,29.31,West,274,0.0,0.0,26,0.00,,,0.00,meteohub,2013-02-11 01:42:00,
2013-02-10 19:47:00,52.2,18.3,29.31,West,274,0.0,0.0,26,0.00,,,0.00,meteohub,2013-02-11 01:47:00,
2013-02-10 19:52:00,51.8,18.0,29.31,West,274,0.0,0.0,26,0.00,,,0.00,meteohub,2013-02-11 01:52:00,
2013-02-10 19:57:00,51.4,18.5,29.31,West,274,0.0,0.0,27,0.00,,,0.00,meteohub,2013-02-11 01:57:00,
2013-02-10 20:02:00,51.1,18.3,29.31,West,274,0.0,0.0,27,0.00,,,0.00,meteohub,2013-02-11 02:02:00,
2013-02-10 20:07:00,50.7,18.0,29.31,West,274,0.0,0.0,27,0.00,,,0.00,meteohub,2013-02-11 02:07:00,
2013-02-10 20:12:00,50.4,18.5,29.31,West,274,0.0,0.0,28,0.00,,,0.00,meteohub,2013-02-11 02:12:00,
2013-02-10 20:17:00,50.2,18.3,29.31,West,274,0.0,0.0,28,0.00,,,0.00,meteohub,2013-02-11 02:17:00,
2013-02-10 20:22:00,50.0,18.1,29.31,West,274,0.0,0.0,28,0.00,,,0.00,meteohub,2013-02-11 02:22:00,
2013-02-10 20:27:00,49.6,18.7,29.31,West,274,0.0,0.0,29,0.00,,,0.00,meteohub,2013-02-11 02:27:00,
2013-02-10 20:32:00,49.5,19.2,29.31,West,274,0.0,0.0,30,0.00,,,0.00,meteohub,2013-02-11 02:32:00,
2013-02-10 20:37:00,49.5,20.1,29.31,West,274,0.0,0.0,31,0.00,,,0.00,meteohub,2013-02-11 02:37:00,
2013-02-10 20:42:00,49.5,20.8,29.34,West,274,0.0,0.0,32,0.00,,,0.00,meteohub,2013-02-11 02:42:00,
2013-02-10 20:47:00,49.3,21.4,29.34,West,274,0.0,0.0,33,0.00,,,0.00,meteohub,2013-02-11 02:47:00,
2013-02-10 20:52:00,49.1,21.2,29.34,West,274,0.0,0.0,33,0.00,,,0.00,meteohub,2013-02-11 02:52:00,
2013-02-10 20:57:00,48.9,21.0,29.34,West,274,0.0,0.0,33,0.00,,,0.00,meteohub,2013-02-11 02:57:00,
2013-02-10 21:02:00,48.7,20.8,29.34,West,274,0.0,0.0,33,0.00,,,0.00,meteohub,2013-02-11 03:02:00,
2013-02-10 21:07:00,48.4,21.4,29.34,West,274,0.0,0.0,34,0.00,,,0.00,meteohub,2013-02-11 03:07:00,
2013-02-10 21:12:00,48.2,21.2,29.34,West,274,0.0,0.0,34,0.00,,,0.00,meteohub,2013-02-11 03:12:00,
2013-02-10 21:17:00,47.8,21.6,29.34,West,274,0.0,0.0,35,0.00,,,0.00,meteohub,2013-02-11 03:17:00,
2013-02-10 21:22:00,47.7,22.1,29.34,West,274,0.0,0.0,36,0.00,,,0.00,meteohub,2013-02-11 03:22:00,
2013-02-10 21:27:00,47.5,21.9,29.34,West,274,0.0,0.0,36,0.00,,,0.00,meteohub,2013-02-11 03:27:00,
2013-02-10 21:32:00,47.3,22.3,29.34,West,274,0.0,0.0,37,0.00,,,0.00,meteohub,2013-02-11 03:32:00,
2013-02-10 21:37:00,47.1,22.1,29.34,West,274,0.0,0.0,37,0.00,,,0.00,meteohub,2013-02-11 03:37:00,
2013-02-10 21:42:00,46.9,22.6,29.34,West,274,0.0,0.0,38,0.00,,,0.00,meteohub,2013-02-11 03:42:00,
2013-02-10 21:47:00,46.8,22.5,29.34,West,274,0.0,0.0,38,0.00,,,0.00,meteohub,2013-02-11 03:47:00,
2013-02-10 21:52:00,46.6,22.3,29.34,West,274,0.0,0.0,38,0.00,,,0.00,meteohub,2013-02-11 03:52:00,
2013-02-10 21:57:00,46.4,22.1,29.34,West,274,0.0,0.0,38,0.00,,,0.00,meteohub,2013-02-11 03:57:00,
2013-02-10 22:02:00,46.2,22.6,29.34,West,274,0.0,0.0,39,0.00,,,0.00,meteohub,2013-02-11 04:02:00,
2013-02-10 22:07:00,46.0,22.5,29.34,West,274,0.0,0.0,39,0.00,,,0.00,meteohub,2013-02-11 04:07:00,
2013-02-10 22:12:00,45.9,22.3,29.34,West,274,0.0,0.0,39,0.00,,,0.00,meteohub,2013-02-11 04:12:00,
2013-02-10 22:17:00,45.9,22.3,29.34,West,274,0.0,0.0,39,0.00,,,0.00,meteohub,2013-02-11 04:17:00,
2013-02-10 22:22:00,45.7,22.1,29.34,West,274,0.0,0.0,39,0.00,,,0.00,meteohub,2013-02-11 04:22:00,
2013-02-10 22:27:00,45.5,22.6,29.34,West,274,0.0,0.0,40,0.00,,,0.00,meteohub,2013-02-11 04:27:00,
2013-02-10 22:32:00,45.3,22.5,29.36,West,274,0.0,0.0,40,0.00,,,0.00,meteohub,2013-02-11 04:32:00,
2013-02-10 22:37:00,45.3,22.5,29.36,West,274,0.0,0.0,40,0.00,,,0.00,meteohub,2013-02-11 04:37:00,
2013-02-10 22:42:00,45.1,22.8,29.36,West,274,0.0,0.0,41,0.00,,,0.00,meteohub,2013-02-11 04:42:00,
2013-02-10 22:47:00,45.1,22.8,29.36,West,274,0.0,0.0,41,0.00,,,0.00,meteohub,2013-02-11 04:47:00,
2013-02-10 22:52:00,45.0,22.6,29.36,West,274,0.0,0.0,41,0.00,,,0.00,meteohub,2013-02-11 04:52:00,
2013-02-10 22:57:00,44.8,22.5,29.36,West,274,0.0,0.0,41,0.00,,,0.00,meteohub,2013-02-11 04:57:00,
2013-02-10 23:00:00,44.8,23.0,29.36,West,274,0.0,0.0,42,0.00,,,0.00,meteohub,2013-02-11 05:00:00,
2013-02-10 23:01:00,44.8,23.0,29.36,West,274,0.0,0.0,42,0.00,,,0.00,meteohub,2013-02-11 05:01:00,
2013-02-10 23:03:00,44.8,23.0,29.36,West,274,0.0,0.0,42,0.00,,,0.00,meteohub,2013-02-11 05:03:00,
2013-02-10 23:08:00,44.6,23.0,29.36,West,274,0.0,0.0,42,0.00,,,0.00,meteohub,2013-02-11 05:08:00,
2013-02-10 23:13:00,44.4,22.8,29.36,West,274,0.0,0.0,42,0.00,,,0.00,meteohub,2013-02-11 05:13:00,
2013-02-10 23:18:00,44.2,23.2,29.36,West,274,0.0,0.0,43,0.00,,,0.00,meteohub,2013-02-11 05:18:00,
2013-02-10 23:24:00,44.1,23.0,29.36,West,274,0.0,0.0,43,0.00,,,0.00,meteohub,2013-02-11 05:24:00,
2013-02-10 23:29:00,44.1,23.0,29.36,West,274,0.0,0.0,43,0.00,,,0.00,meteohub,2013-02-11 05:29:00,
2013-02-10 23:34:00,43.9,23.4,29.36,West,274,0.0,0.0,44,0.00,,,0.00,meteohub,2013-02-11 05:34:00,
2013-02-10 23:39:00,43.7,23.2,29.36,West,274,0.0,0.0,44,0.00,,,0.00,meteohub,2013-02-11 05:39:00,
2013-02-10 23:44:00,43.7,23.2,29.36,West,274,0.0,0.0,44,0.00,,,0.00,meteohub,2013-02-11 05:44:00,
2013-02-10 23:49:00,43.7,23.7,29.36,West,274,0.0,0.0,45,0.00,,,0.00,meteohub,2013-02-11 05:49:00,
2013-02-10 23:54:00,43.7,23.7,29.36,West,274,0.0,0.0,45,0.00,,,0.00,meteohub,2013-02-11 05:54:00,
2013-02-10 23:59:00,44.1,24.1,29.36,West,274,0.0,0.0,45,0.00,,,0.00,meteohub,2013-02-11 05:59:00,